Millville, NJ

7:41 PM EDT on August 28, 2016 (GMT -0400)
Millville Municipal

Weather History for KMIV - April, 2013

Change the Weather History Date:

Friday, April 5, 2013

  Actual Average Record
Temperature  
Mean Temperature 50 °F -  
Max Temperature 63 °F 58 °F 77 °F (1985)
Min Temperature 37 °F 39 °F 25 °F (1964)
Degree Days  
Heating Degree Days 15    
Moisture  
Dew Point 33 °F    
Average Humidity 68    
Maximum Humidity 100    
Minimum Humidity 23    
Precipitation  
Precipitation 0.64 in - - ()
Sea Level Pressure  
Sea Level Pressure 29.91 in    
Wind  
Wind Speed 5 mph (North)    
Max Wind Speed 17 mph    
Max Gust Speed 26 mph    
Visibility 8 miles    
Events Rain    
Averages and records for this station are not official NWS values.
T = Trace of Precipitation, MM = Missing Value Source: NWS Daily Summary

Daily Weather History Graph

Daily Weather History Graph

Search for Another Location

Airport or City:

Trip Planner

Search our weather history database for the weather conditions in past years. The results will help you decide how hot, cold, wet, or windy it might be!

Date:

Astronomy

Apr. 05, 2013 Rise Set
Actual Time 6:38 AM EDT 7:28 PM EDT
Civil Twilight 6:10 AM EDT 7:55 PM EDT
Nautical Twilight 5:38 AM EDT 8:27 PM EDT
Astronomical Twilight 5:05 AM EDT 9:01 PM EDT
Moon 3:42 AM EDT (4/5) 2:51 PM EDT (4/5)
Length of Visible Light 13h 44m
Length of Day
12h 50m
Waning Crescent, 24% of the Moon is Illuminated
Apr 5
Waning Crescent
Apr 10
New
Apr 18
First Quarter
Apr 25
Full
May 2
Last Quarter

Hourly Weather History & Observations

Time (EDT) Temp. Windchill Dew Point Humidity Pressure Visibility Wind Dir Wind Speed Gust Speed Precip Events Conditions
12:54 AM 37.9 °F - 36.0 °F 93% 30.10 in 5.0 mi Calm Calm - 0.03 in Rain Light Rain
1:54 AM 37.9 °F - 36.0 °F 93% 30.07 in 4.0 mi Calm Calm - 0.04 in Rain Rain
2:54 AM 37.9 °F - 35.1 °F 89% 30.02 in 6.0 mi Calm Calm - 0.04 in Rain Light Rain
3:09 AM 37.4 °F 34.9 °F 35.6 °F 93% 30.00 in 6.0 mi NE 3.5 mph - 0.01 in Rain Light Rain
3:34 AM 37.4 °F 33.8 °F 35.6 °F 93% 29.99 in 6.0 mi NNE 4.6 mph - 0.02 in Rain Light Rain
3:43 AM 37.4 °F 32.8 °F 35.6 °F 93% 29.97 in 7.0 mi North 5.8 mph - 0.03 in Rain Light Rain
3:54 AM 37.9 °F 33.5 °F 35.1 °F 89% 29.96 in 8.0 mi North 5.8 mph - 0.03 in Rain Light Rain
4:54 AM 37.0 °F 34.5 °F 36.0 °F 96% 29.96 in 4.0 mi NNE 3.5 mph - 0.15 in Rain Rain
5:54 AM 37.9 °F 32.7 °F 36.0 °F 93% 29.94 in 4.0 mi NNE 6.9 mph - 0.23 in Rain Rain
6:54 AM 37.9 °F 33.5 °F 36.0 °F 93% 29.92 in 6.0 mi NNE 5.8 mph - 0.08 in Rain Light Rain
7:02 AM 37.4 °F 33.8 °F 35.6 °F 93% 29.92 in 6.0 mi NNE 4.6 mph - 0.01 in Rain Light Rain
7:54 AM 37.9 °F 34.4 °F 37.0 °F 97% 29.91 in 4.0 mi NE 4.6 mph - 0.02 in Rain Light Rain
8:07 AM 37.4 °F 33.8 °F 37.4 °F 100% 29.90 in 3.0 mi NE 4.6 mph - 0.01 in Rain Light Rain
8:54 AM 41.0 °F 37.1 °F 37.9 °F 89% 29.88 in 7.0 mi North 5.8 mph - 0.02 in   Overcast
9:16 AM 41.0 °F 35.8 °F 39.2 °F 93% 29.88 in 6.0 mi North 8.1 mph - N/A   Overcast
9:54 AM 44.1 °F 39.5 °F 41.0 °F 89% 29.88 in 7.0 mi North 8.1 mph - N/A   Mostly Cloudy
10:03 AM 44.6 °F 40.7 °F 41.0 °F 87% 29.87 in 8.0 mi North 6.9 mph - N/A   Mostly Cloudy
10:54 AM 48.9 °F - 39.9 °F 71% 29.86 in 10.0 mi NNW 9.2 mph - N/A   Clear
11:54 AM 52.0 °F - 35.1 °F 53% 29.84 in 10.0 mi NNW 11.5 mph - N/A   Clear
12:54 PM 55.9 °F - 34.0 °F 44% 29.83 in 10.0 mi North 13.8 mph 18.4 mph N/A   Clear
1:54 PM 57.0 °F - 30.9 °F 37% 29.80 in 10.0 mi NNW 10.4 mph 19.6 mph N/A   Clear
2:54 PM 59.0 °F - 27.0 °F 29% 29.77 in 10.0 mi NNW 13.8 mph 24.2 mph N/A   Clear
3:54 PM 62.1 °F - 24.1 °F 23% 29.77 in 10.0 mi West 11.5 mph 19.6 mph N/A   Clear
4:54 PM 63.0 °F - 24.1 °F 23% 29.78 in 10.0 mi WNW 17.3 mph 24.2 mph N/A   Clear
5:54 PM 61.0 °F - 23.0 °F 23% 29.80 in 10.0 mi WNW 16.1 mph 26.5 mph N/A   Clear
6:54 PM 59.0 °F - 24.1 °F 26% 29.83 in 10.0 mi NW 8.1 mph - N/A   Clear
7:54 PM 50.0 °F - 28.0 °F 43% 29.85 in 10.0 mi WNW 3.5 mph - N/A   Clear
8:54 PM 43.0 °F 38.8 °F 30.0 °F 60% 29.89 in 10.0 mi WNW 6.9 mph - N/A   Clear
9:54 PM 50.0 °F - 24.1 °F 36% 29.93 in 10.0 mi NW 5.8 mph - N/A   Clear
10:54 PM 52.0 °F - 19.0 °F 27% 29.95 in 10.0 mi NNW 10.4 mph - N/A   Clear
11:54 PM 48.9 °F - 19.9 °F 32% 29.99 in 10.0 mi NNW 9.2 mph - N/A   Clear